Tracking 19242 objects as of 20-Sep-2018
HD Live streaming from Space Station
objects crossing your sky now

FENGYUN 1C DEB

Track FENGYUN 1C DEB now!
10-day predictions


NORAD ID: 31181
Int'l Code: 1999-025BJK
Perigee: 848.8 km
Apogee: 922.8 km
Inclination: 99.0 °
Period: 102.5 minutes
Semi major axis: 7256 km
RCS: 0.02 m2 (small)
Launch date: May 10, 1999
Source: People's Republic of China (PRC)
Launch site: Taiyaun Space Center, China (TSC)

Note: This is SATELLITE DEBRIS
aabbcc
Your satellite tracking list
Your tracking list is empty




NASA's NSSDC Master Catalog

Two Line Element Set (TLE):
1 31181U 99025BJK 18262.05273774  .00000572  00000-0  38341-3 0  9999
2 31181  99.0121 302.6698 0050964 274.0212 143.6856 14.04377278586706
Source of the keplerian elements: AFSPC